TimeCST,TemperatureF,Dew PointF,Humidity,Sea Level PressureIn,VisibilityMPH,Wind Direction,Wind SpeedMPH,Gust SpeedMPH,PrecipitationIn,Events,Conditions,WindDirDegrees,DateUTC
12:53 AM,53.1,37.9,57,30.27,10.0,SE,6.9,-,N/A,,Clear,140,2012-11-11 06:53:00
1:53 AM,54.0,39.0,57,30.26,10.0,SE,4.6,-,N/A,,Clear,140,2012-11-11 07:53:00
2:53 AM,53.1,39.0,59,30.26,10.0,SE,4.6,-,N/A,,Clear,130,2012-11-11 08:53:00
3:53 AM,52.0,39.0,61,30.27,10.0,Calm,Calm,-,N/A,,Clear,0,2012-11-11 09:53:00
4:53 AM,46.9,39.0,74,30.29,10.0,Calm,Calm,-,N/A,,Clear,0,2012-11-11 10:53:00
5:53 AM,46.0,39.9,79,30.31,10.0,ENE,3.5,-,N/A,,Clear,70,2012-11-11 11:53:00
6:53 AM,51.1,41.0,68,30.33,10.0,ESE,5.8,-,N/A,,Clear,120,2012-11-11 12:53:00
7:53 AM,57.0,42.1,57,30.34,10.0,ESE,4.6,-,N/A,,Clear,120,2012-11-11 13:53:00
8:53 AM,61.0,39.9,46,30.36,10.0,SSE,10.4,-,N/A,,Clear,150,2012-11-11 14:53:00
9:53 AM,64.4,46.4,52,30.34,10.0,SSE,11.5,19.6,N/A,,Clear,150,2012-11-11 15:53:00
10:53 AM,66.0,48.9,54,30.32,10.0,SSE,9.2,24.2,N/A,,Clear,150,2012-11-11 16:53:00
11:53 AM,69.8,48.2,46,30.30,10.0,South,13.8,21.9,N/A,,Scattered Clouds,170,2012-11-11 17:53:00
12:53 PM,69.1,48.9,49,30.26,10.0,SSE,12.7,21.9,N/A,,Clear,150,2012-11-11 18:53:00
1:53 PM,71.1,48.9,45,30.23,10.0,SE,11.5,26.5,N/A,,Clear,130,2012-11-11 19:53:00
2:53 PM,71.1,48.9,45,30.23,10.0,SE,9.2,-,N/A,,Clear,140,2012-11-11 20:53:00
3:53 PM,70.0,48.9,47,30.23,10.0,SE,5.8,-,N/A,,Mostly Cloudy,140,2012-11-11 21:53:00
4:53 PM,68.0,48.0,49,30.23,10.0,SE,4.6,-,N/A,,Partly Cloudy,140,2012-11-11 22:53:00
5:53 PM,66.9,48.9,52,30.25,10.0,SSE,4.6,-,N/A,,Scattered Clouds,150,2012-11-11 23:53:00
6:53 PM,66.0,50.0,56,30.24,10.0,SSE,6.9,-,N/A,,Clear,150,2012-11-12 00:53:00
7:53 PM,66.0,50.0,56,30.23,10.0,South,8.1,-,N/A,,Clear,170,2012-11-12 01:53:00
8:53 PM,64.4,50.0,59,30.24,10.0,SSE,5.8,-,N/A,,Clear,160,2012-11-12 02:53:00
9:53 PM,64.9,50.0,58,30.22,10.0,SSE,12.7,17.3,N/A,,Clear,160,2012-11-12 03:53:00
10:53 PM,64.9,51.1,61,30.20,10.0,SSE,9.2,21.9,N/A,,Clear,150,2012-11-12 04:53:00
11:53 PM,64.9,51.1,61,30.14,10.0,SE,16.1,23.0,N/A,,Clear,140,2012-11-12 05:53:00